Location: Juzet
(42.9779°N, 0.7597°E)
Time: 18:44:32
(UTC+00:00)

Cosmos 1900 - Pass Details

Date: 14 July 2020
Orbit: 682 x 740 km, 66.1° (Epoch: 11 August)

Event Time Altitude Azimuth Distance (km) Brightness Sun altitude
Exits shadow 02:29:33 31° 213° (SSW) 1,198 4.9 -17.1°
Maximum altitude 02:31:53 87° 301° (WNW) 706 4.3 -16.9°
Drops below altitude 10° 02:36:53 10° 31° (NNE) 2,189 8.2 -16.3°
Sets 02:39:16 0° 32° (NNE) 3,121 9.5 -16.1°
